Volver al catálogo

COSMOS 970 DEB *

ActivoLEO
NORAD 20032·DEBRIS·🇷🇺 Russia

Lanzado Dec 21, 1977 desde Baikonur Cosmodrome

Loading…

Próximos Pases (próximas 24 horas)

TLE

ActualizadoSource: Space-Track

Época: Sep 14, 2026, 14:39 UTC

1 20032U 77121BW  26257.61063980  .00007125  00000-0  10771-2 0  9993
2 20032  65.6621 337.0232 0357659 262.0113 165.6536 14.39788223668172

Sigue COSMOS 970 DEB * en tiempo real con AllMySat

Download on the App Store